SWA431 KSEA-KLAS

Flight info

Callsign SWA431
Flight time N/A
Altitude 39000
Route OZWLD1 OZWLD SUMMA LKV BAARB RYANN TQILA COKTL4
Aircraft B737/M-SDE2E3FGHIRWXY/LB1

Departure

Time 2026-05-01 13:25
Airport Seattle–Tacoma International Airport (KSEA)

Arrival

Time N/A
Airport Harry Reid International Airport (KLAS)
Time Latitude Longitude Altitude Speed Heading
2026-05-01 12:44 47.44092 -122.30315 388 ft 0 kts 315°
2026-05-01 13:15 47.44089 -122.30311 388 ft 3 kts 315°
2026-05-01 13:16 47.44071 -122.30283 388 ft 4 kts 313°
2026-05-01 13:16 47.44053 -122.30252 388 ft 4 kts 302°
2026-05-01 13:16 47.44044 -122.30219 388 ft 4 kts 256°
2026-05-01 13:17 47.44046 -122.30210 388 ft 1 kts 244°
2026-05-01 13:20 47.44045 -122.30211 388 ft 1 kts 244°
2026-05-01 13:21 47.44012 -122.30291 386 ft 9 kts 242°
2026-05-01 13:21 47.43993 -122.30391 385 ft 12 kts 266°
2026-05-01 13:21 47.43993 -122.30524 383 ft 14 kts 269°
2026-05-01 13:21 47.43973 -122.30624 382 ft 10 kts 214°
2026-05-01 13:22 47.43892 -122.30641 379 ft 14 kts 181°
2026-05-01 13:22 47.43789 -122.30640 376 ft 17 kts 179°
2026-05-01 13:22 47.43662 -122.30636 372 ft 20 kts 173°
2026-05-01 13:22 47.43551 -122.30566 370 ft 17 kts 165°
2026-05-01 13:23 47.43422 -122.30561 371 ft 20 kts 181°
2026-05-01 13:23 47.43274 -122.30566 365 ft 21 kts 188°
2026-05-01 13:23 47.43176 -122.30679 357 ft 17 kts 263°
2026-05-01 13:23 47.43180 -122.30782 357 ft 7 kts 281°
2026-05-01 13:24 47.43204 -122.30804 358 ft 0 kts 357°
2026-05-01 13:24 47.43231 -122.30805 364 ft 8 kts 359°
2026-05-01 13:24 47.43440 -122.30804 365 ft 64 kts
2026-05-01 13:25 47.45157 -122.30785 614 ft 160 kts
2026-05-01 13:25 47.46281 -122.30759 1343 ft 162 kts
2026-05-01 13:25 47.47451 -122.30752 1954 ft 177 kts
2026-05-01 13:25 47.48788 -122.30721 2286 ft 208 kts
2026-05-01 13:26 47.50310 -122.30712 2553 ft 234 kts 359°
2026-05-01 13:26 47.51985 -122.30803 3086 ft 250 kts 358°
2026-05-01 13:26 47.53806 -122.30908 3643 ft 268 kts 358°
2026-05-01 13:26 47.55656 -122.31289 4625 ft 270 kts 338°
2026-05-01 13:27 47.57286 -122.32691 5573 ft 273 kts 324°
2026-05-01 13:27 47.58860 -122.34310 6506 ft 277 kts 324°
2026-05-01 13:27 47.61098 -122.38771 8355 ft 275 kts 281°
2026-05-01 13:28 47.61724 -122.44368 10171 ft 279 kts 270°
2026-05-01 13:28 47.61361 -122.47245 10557 ft 298 kts 244°
2026-05-01 13:29 47.58497 -122.52263 11174 ft 338 kts 224°
2026-05-01 13:29 47.55099 -122.57223 12755 ft 345 kts 225°
2026-05-01 13:30 47.46216 -122.60530 15863 ft 370 kts 159°
2026-05-01 13:31 47.41506 -122.57136 17220 ft 383 kts 155°
2026-05-01 13:31 47.34294 -122.51637 19221 ft 396 kts 155°
2026-05-01 13:32 47.29347 -122.47939 20561 ft 401 kts 155°
2026-05-01 13:33 47.21763 -122.42344 22368 ft 412 kts 155°
2026-05-01 13:33 47.16593 -122.38547 23554 ft 419 kts 155°
2026-05-01 13:34 47.11335 -122.34695 24531 ft 425 kts 156°
2026-05-01 13:34 47.06000 -122.30794 25450 ft 432 kts 156°
2026-05-01 13:35 47.00573 -122.26835 26287 ft 439 kts 156°
2026-05-01 13:35 46.97829 -122.24837 26718 ft 442 kts 156°
2026-05-01 13:35 46.92281 -122.20803 27562 ft 448 kts 156°
2026-05-01 13:36 46.89479 -122.18769 27962 ft 451 kts 156°
2026-05-01 13:36 46.86652 -122.16720 28354 ft 454 kts 156°
2026-05-01 13:36 46.80980 -122.12616 28986 ft 462 kts 156°
2026-05-01 13:37 46.78094 -122.10530 29379 ft 464 kts 156°
2026-05-01 13:37 46.75193 -122.08436 29767 ft 466 kts 156°
2026-05-01 13:37 46.72311 -122.06358 30098 ft 469 kts 156°
2026-05-01 13:37 46.70851 -122.05306 30259 ft 470 kts 156°
2026-05-01 13:38 46.65312 -122.01323 31173 ft 464 kts 156°
2026-05-01 13:38 46.62408 -121.99267 31568 ft 463 kts 159°
2026-05-01 13:38 46.59380 -121.97683 31869 ft 461 kts 167°
2026-05-01 13:39 46.56283 -121.96474 32265 ft 460 kts 168°
2026-05-01 13:39 46.53183 -121.95323 32702 ft 457 kts 168°
2026-05-01 13:39 46.50097 -121.94189 33118 ft 456 kts 168°
2026-05-01 13:39 46.47028 -121.93055 33493 ft 455 kts 168°
2026-05-01 13:40 46.43961 -121.91907 33842 ft 455 kts 168°
2026-05-01 13:40 46.40932 -121.90763 34182 ft 454 kts 168°
2026-05-01 13:40 46.37873 -121.89599 34479 ft 454 kts 168°
2026-05-01 13:40 46.34820 -121.88432 34753 ft 453 kts 168°
2026-05-01 13:41 46.31767 -121.87264 35020 ft 453 kts 168°
2026-05-01 13:41 46.28716 -121.86097 35309 ft 452 kts 168°
2026-05-01 13:41 46.25676 -121.84935 35583 ft 452 kts 168°
2026-05-01 13:41 46.22636 -121.83776 35764 ft 453 kts 168°
2026-05-01 13:42 46.19616 -121.82623 35927 ft 454 kts 168°
2026-05-01 13:42 46.16560 -121.81459 36173 ft 454 kts 168°
2026-05-01 13:42 46.13513 -121.80303 36484 ft 452 kts 168°
2026-05-01 13:42 46.10467 -121.79149 36753 ft 450 kts 169°
2026-05-01 13:43 46.07446 -121.78004 37093 ft 447 kts 169°
2026-05-01 13:43 46.04435 -121.76863 37341 ft 447 kts 169°
2026-05-01 13:43 46.01419 -121.75725 37442 ft 449 kts 169°
2026-05-01 13:44 45.95370 -121.73443 37702 ft 452 kts 169°
2026-05-01 13:44 45.92320 -121.72292 37956 ft 451 kts 169°
2026-05-01 13:44 45.89291 -121.71151 38205 ft 450 kts 169°
2026-05-01 13:44 45.86264 -121.70012 38397 ft 450 kts 169°
2026-05-01 13:45 45.83227 -121.68871 38555 ft 451 kts 169°
2026-05-01 13:45 45.80194 -121.67734 38671 ft 452 kts 170°
2026-05-01 13:45 45.77145 -121.66592 38786 ft 453 kts 170°
2026-05-01 13:45 45.74092 -121.65449 38942 ft 452 kts 169°
2026-05-01 13:46 45.71044 -121.64309 39068 ft 452 kts 169°
2026-05-01 13:46 45.64941 -121.62029 39075 ft 454 kts 169°
2026-05-01 13:47 45.58868 -121.59768 39075 ft 453 kts 170°
2026-05-01 13:47 45.52759 -121.57498 39080 ft 453 kts 170°
2026-05-01 13:48 45.46651 -121.55232 39089 ft 453 kts 170°
2026-05-01 13:48 45.40540 -121.52971 39066 ft 453 kts 170°
2026-05-01 13:49 45.34469 -121.50733 39078 ft 453 kts 170°
2026-05-01 13:49 45.28357 -121.48481 39082 ft 453 kts 170°
2026-05-01 13:50 45.22243 -121.46233 39072 ft 454 kts 170°
2026-05-01 13:50 45.16116 -121.43987 39072 ft 455 kts 170°
2026-05-01 13:51 45.10022 -121.41757 39080 ft 456 kts 170°
2026-05-01 13:51 45.03866 -121.39512 39084 ft 457 kts 171°
2026-05-01 13:52 44.97704 -121.37267 39081 ft 458 kts 171°
2026-05-01 13:52 44.91532 -121.35023 39084 ft 459 kts 171°
2026-05-01 13:53 44.85345 -121.32779 39088 ft 459 kts 171°
2026-05-01 13:53 44.76063 -121.29422 39084 ft 459 kts 171°
2026-05-01 13:54 44.69873 -121.27190 39090 ft 459 kts 171°
2026-05-01 13:54 44.63719 -121.24976 39091 ft 460 kts 171°
2026-05-01 13:55 44.57512 -121.22748 39074 ft 461 kts 171°
2026-05-01 13:55 44.51299 -121.20522 39091 ft 461 kts 171°
2026-05-01 13:56 44.45065 -121.18294 39097 ft 462 kts 171°
2026-05-01 13:56 44.38820 -121.16066 39095 ft 463 kts 171°
2026-05-01 13:57 44.33622 -121.14217 39088 ft 464 kts 171°
2026-05-01 13:57 44.26336 -121.11628 39118 ft 465 kts 171°
2026-05-01 13:58 44.20066 -121.09407 39111 ft 465 kts 171°
2026-05-01 13:58 44.13786 -121.07186 39127 ft 466 kts 171°
2026-05-01 13:59 44.08555 -121.05340 39130 ft 466 kts 171°
2026-05-01 13:59 44.02255 -121.03122 39122 ft 466 kts 172°
2026-05-01 14:00 43.94948 -121.00554 39113 ft 466 kts 172°
2026-05-01 14:00 43.89673 -120.98705 39114 ft 466 kts 172°
2026-05-01 14:01 43.83372 -120.96501 39105 ft 467 kts 172°
2026-05-01 14:01 43.77073 -120.94293 39095 ft 467 kts 172°
2026-05-01 14:02 43.70787 -120.92105 39104 ft 468 kts 172°
2026-05-01 14:02 43.64460 -120.89912 39120 ft 469 kts 172°
2026-05-01 14:03 43.58113 -120.87708 39119 ft 470 kts 172°
2026-05-01 14:03 43.51767 -120.85516 39129 ft 470 kts 172°
2026-05-01 14:04 43.45406 -120.83326 39135 ft 471 kts 172°
2026-05-01 14:04 43.39084 -120.81144 39125 ft 472 kts 172°
2026-05-01 14:05 43.32702 -120.78948 39141 ft 472 kts 172°
2026-05-01 14:05 43.26315 -120.76757 39141 ft 474 kts 172°
2026-05-01 14:06 43.19913 -120.74567 39137 ft 475 kts 172°
2026-05-01 14:06 43.14582 -120.72745 39150 ft 475 kts 172°
2026-05-01 14:07 43.06360 -120.69942 39144 ft 477 kts 172°
2026-05-01 14:08 42.96738 -120.66674 39132 ft 477 kts 172°
2026-05-01 14:08 42.90296 -120.64488 39150 ft 477 kts 172°
2026-05-01 14:09 42.83833 -120.62302 39131 ft 478 kts 172°
2026-05-01 14:09 42.77375 -120.60123 39143 ft 478 kts 172°